Time,TemperatureF,DewpointF,PressureIn,WindDirection,WindDirectionDegrees,WindSpeedMPH,WindSpeedGustMPH,Humidity,HourlyPrecipIn,Conditions,Clouds,dailyrainin,SoftwareType,DateUTC
2013-07-25 00:02:00,60.4,57.2,30.03,SSE,163,0.0,0.0,89,0.00,,,0.00,meteohub,2013-07-25 05:02:00,
2013-07-25 00:07:00,60.4,57.2,30.03,SSE,163,0.0,0.0,89,0.00,,,0.00,meteohub,2013-07-25 05:07:00,
2013-07-25 00:12:00,60.4,57.2,30.03,SSE,163,0.0,0.0,89,0.00,,,0.00,meteohub,2013-07-25 05:12:00,
2013-07-25 00:17:00,60.4,57.2,30.03,SSE,163,0.0,0.0,89,0.00,,,0.00,meteohub,2013-07-25 05:17:00,
2013-07-25 00:22:00,60.3,57.0,30.03,SSE,163,0.0,0.0,89,0.00,,,0.00,meteohub,2013-07-25 05:22:00,
2013-07-25 00:27:00,60.1,56.8,30.03,SSE,163,0.0,0.0,89,0.00,,,0.00,meteohub,2013-07-25 05:27:00,
2013-07-25 00:32:00,60.3,57.0,30.03,SSE,163,0.0,0.0,89,0.00,,,0.00,meteohub,2013-07-25 05:32:00,
2013-07-25 00:37:00,60.4,57.2,30.03,SSE,163,0.0,0.0,89,0.00,,,0.00,meteohub,2013-07-25 05:37:00,
2013-07-25 00:42:00,60.3,57.0,30.03,SSE,163,0.0,0.0,89,0.00,,,0.00,meteohub,2013-07-25 05:42:00,
2013-07-25 00:47:00,60.3,57.0,30.03,SSE,163,0.0,0.0,89,0.00,,,0.00,meteohub,2013-07-25 05:47:00,
2013-07-25 00:52:00,60.1,56.8,30.03,SSE,163,0.0,0.0,89,0.00,,,0.00,meteohub,2013-07-25 05:52:00,
2013-07-25 00:57:00,60.1,56.8,30.02,SSE,163,0.0,1.0,89,0.00,,,0.00,meteohub,2013-07-25 05:57:00,
2013-07-25 01:02:00,60.1,56.8,30.02,SSE,163,0.0,1.0,89,0.00,,,0.00,meteohub,2013-07-25 06:02:00,
2013-07-25 01:07:00,60.3,57.0,30.02,SSE,163,0.0,3.0,89,0.00,,,0.00,meteohub,2013-07-25 06:07:00,
2013-07-25 01:12:00,60.6,57.4,30.02,SSE,163,0.0,3.0,89,0.00,,,0.00,meteohub,2013-07-25 06:12:00,
2013-07-25 01:17:00,61.2,57.9,30.02,SSE,163,0.0,3.0,89,0.00,,,0.00,meteohub,2013-07-25 06:17:00,
2013-07-25 01:22:00,61.2,57.6,30.02,SSE,163,0.0,1.0,88,0.00,,,0.00,meteohub,2013-07-25 06:22:00,
2013-07-25 01:27:00,61.0,57.4,30.01,SSE,163,0.0,1.0,88,0.00,,,0.00,meteohub,2013-07-25 06:27:00,
2013-07-25 01:32:00,60.8,57.2,30.01,SSE,163,0.0,1.0,88,0.00,,,0.00,meteohub,2013-07-25 06:32:00,
2013-07-25 01:37:00,60.4,56.8,30.01,SSE,163,0.0,1.0,88,0.00,,,0.00,meteohub,2013-07-25 06:37:00,
2013-07-25 01:42:00,59.9,56.3,30.00,SSE,163,0.0,1.0,88,0.00,,,0.00,meteohub,2013-07-25 06:42:00,
2013-07-25 01:47:00,60.1,56.5,30.00,SSE,163,0.0,1.0,88,0.00,,,0.00,meteohub,2013-07-25 06:47:00,
2013-07-25 01:52:00,60.1,56.5,30.00,SSE,163,0.0,2.0,88,0.00,,,0.00,meteohub,2013-07-25 06:52:00,
2013-07-25 01:57:00,60.3,56.7,30.00,SSE,163,0.0,2.0,88,0.00,,,0.00,meteohub,2013-07-25 06:57:00,
2013-07-25 02:02:00,60.3,56.7,30.00,SSE,163,0.0,1.0,88,0.00,,,0.00,meteohub,2013-07-25 07:02:00,
2013-07-25 02:07:00,60.3,56.7,30.00,SSE,163,0.0,1.0,88,0.00,,,0.00,meteohub,2013-07-25 07:07:00,
2013-07-25 02:12:00,60.1,56.5,30.00,SSE,163,0.0,1.0,88,0.00,,,0.00,meteohub,2013-07-25 07:12:00,
2013-07-25 02:17:00,59.7,56.1,30.00,SSE,163,0.0,0.0,88,0.00,,,0.00,meteohub,2013-07-25 07:17:00,
2013-07-25 02:22:00,59.5,55.9,30.00,SSE,163,0.0,0.0,88,0.00,,,0.00,meteohub,2013-07-25 07:22:00,
2013-07-25 02:28:00,59.5,55.9,29.99,SSE,163,0.0,0.0,88,0.00,,,0.00,meteohub,2013-07-25 07:28:00,
2013-07-25 02:33:00,59.4,55.8,29.99,SSE,163,0.0,0.0,88,0.00,,,0.00,meteohub,2013-07-25 07:33:00,
2013-07-25 02:38:00,59.4,55.8,29.99,SSE,163,0.0,1.0,88,0.00,,,0.00,meteohub,2013-07-25 07:38:00,
2013-07-25 02:43:00,59.4,55.8,29.99,SSE,163,0.0,1.0,88,0.00,,,0.00,meteohub,2013-07-25 07:43:00,
2013-07-25 02:48:00,59.4,56.1,29.99,SSE,163,0.0,0.0,89,0.00,,,0.00,meteohub,2013-07-25 07:48:00,
2013-07-25 02:53:00,59.5,56.3,29.99,SSE,163,0.0,0.0,89,0.00,,,0.00,meteohub,2013-07-25 07:53:00,
2013-07-25 02:58:00,59.5,56.3,29.99,SSE,163,0.0,0.0,89,0.00,,,0.00,meteohub,2013-07-25 07:58:00,
2013-07-25 03:03:00,59.5,56.3,29.99,SSE,163,0.0,0.0,89,0.00,,,0.00,meteohub,2013-07-25 08:03:00,
2013-07-25 03:08:00,59.5,56.3,30.00,SSE,163,0.0,0.0,89,0.00,,,0.00,meteohub,2013-07-25 08:08:00,
2013-07-25 03:13:00,59.5,56.3,29.99,SSE,163,0.0,0.0,89,0.00,,,0.00,meteohub,2013-07-25 08:13:00,
2013-07-25 03:18:00,59.0,55.4,29.99,SSE,163,0.0,1.0,88,0.00,,,0.00,meteohub,2013-07-25 08:18:00,
2013-07-25 03:23:00,59.0,55.8,30.00,SSE,163,2.0,2.0,89,0.00,,,0.00,meteohub,2013-07-25 08:23:00,
2013-07-25 03:28:00,59.5,56.3,30.00,SSE,163,0.0,3.0,89,0.00,,,0.00,meteohub,2013-07-25 08:28:00,
2013-07-25 03:33:00,60.1,56.8,30.01,SSE,163,0.0,3.0,89,0.00,,,0.00,meteohub,2013-07-25 08:33:00,
2013-07-25 03:38:00,60.4,57.2,30.01,SSE,163,0.0,3.0,89,0.00,,,0.00,meteohub,2013-07-25 08:38:00,
2013-07-25 03:43:00,60.8,57.6,30.01,SSE,163,0.0,1.0,89,0.00,,,0.00,meteohub,2013-07-25 08:43:00,
2013-07-25 03:48:00,60.8,57.6,30.01,SSE,163,0.0,1.0,89,0.00,,,0.00,meteohub,2013-07-25 08:48:00,
2013-07-25 03:53:00,60.6,57.4,30.01,SSE,163,0.0,1.0,89,0.00,,,0.00,meteohub,2013-07-25 08:53:00,
2013-07-25 03:58:00,60.3,57.0,30.01,SSE,163,0.0,1.0,89,0.00,,,0.00,meteohub,2013-07-25 08:58:00,
2013-07-25 04:03:00,60.1,56.8,30.01,SSE,163,0.0,1.0,89,0.00,,,0.00,meteohub,2013-07-25 09:03:00,
2013-07-25 04:08:00,60.1,56.8,30.01,SSE,163,0.0,0.0,89,0.00,,,0.00,meteohub,2013-07-25 09:08:00,
2013-07-25 04:13:00,60.1,56.8,30.01,SSE,163,0.0,0.0,89,0.00,,,0.00,meteohub,2013-07-25 09:13:00,
2013-07-25 04:19:00,59.9,56.7,30.01,SSE,163,0.0,0.0,89,0.00,,,0.00,meteohub,2013-07-25 09:19:00,
2013-07-25 04:24:00,59.9,56.7,30.01,SSE,163,0.0,0.0,89,0.00,,,0.00,meteohub,2013-07-25 09:24:00,
2013-07-25 04:29:00,59.7,56.5,30.01,SSE,163,0.0,0.0,89,0.00,,,0.00,meteohub,2013-07-25 09:29:00,
2013-07-25 04:34:00,59.5,56.3,30.01,SSE,163,0.0,1.0,89,0.00,,,0.00,meteohub,2013-07-25 09:34:00,
2013-07-25 04:39:00,59.0,55.8,30.01,SSE,163,0.0,2.0,89,0.00,,,0.00,meteohub,2013-07-25 09:39:00,
2013-07-25 04:44:00,58.5,55.2,30.01,SSE,163,0.0,2.0,89,0.00,,,0.00,meteohub,2013-07-25 09:44:00,
2013-07-25 04:49:00,58.5,55.2,30.01,SSE,163,0.0,2.0,89,0.00,,,0.00,meteohub,2013-07-25 09:49:00,
2013-07-25 04:54:00,58.8,55.6,30.00,SSE,163,0.0,2.0,89,0.00,,,0.00,meteohub,2013-07-25 09:54:00,
2013-07-25 04:59:00,59.0,55.8,30.00,SSE,163,0.0,2.0,89,0.00,,,0.00,meteohub,2013-07-25 09:59:00,
2013-07-25 05:04:00,59.0,55.8,29.99,SSE,163,0.0,2.0,89,0.00,,,0.00,meteohub,2013-07-25 10:04:00,
2013-07-25 05:09:00,59.0,55.8,29.99,SSE,163,0.0,2.0,89,0.00,,,0.00,meteohub,2013-07-25 10:09:00,
2013-07-25 05:14:00,59.0,55.8,29.99,SSE,163,0.0,1.0,89,0.00,,,0.00,meteohub,2013-07-25 10:14:00,
2013-07-25 05:19:00,58.6,55.4,29.99,SSE,163,0.0,0.0,89,0.00,,,0.00,meteohub,2013-07-25 10:19:00,
2013-07-25 05:24:00,58.5,55.2,29.99,SSE,163,0.0,0.0,89,0.00,,,0.00,meteohub,2013-07-25 10:24:00,
2013-07-25 05:29:00,58.3,55.0,29.99,SSE,163,0.0,0.0,89,0.00,,,0.00,meteohub,2013-07-25 10:29:00,
2013-07-25 05:34:00,58.1,54.9,29.99,SSE,163,0.0,2.0,89,0.00,,,0.00,meteohub,2013-07-25 10:34:00,
2013-07-25 05:39:00,58.3,55.0,30.00,SSE,163,0.0,2.0,89,0.00,,,0.00,meteohub,2013-07-25 10:39:00,
2013-07-25 05:44:00,58.5,55.2,30.00,SSE,163,0.0,2.0,89,0.00,,,0.00,meteohub,2013-07-25 10:44:00,
2013-07-25 05:49:00,58.5,55.2,29.99,SSE,163,0.0,2.0,89,0.00,,,0.00,meteohub,2013-07-25 10:49:00,
2013-07-25 05:54:00,58.3,55.0,29.99,SSE,163,0.0,2.0,89,0.00,,,0.00,meteohub,2013-07-25 10:54:00,
2013-07-25 05:59:00,58.1,54.9,29.99,SSE,163,0.0,1.0,89,0.00,,,0.00,meteohub,2013-07-25 10:59:00,
2013-07-25 06:04:00,57.9,54.7,30.00,SSE,163,0.0,3.0,89,0.00,,,0.00,meteohub,2013-07-25 11:04:00,
2013-07-25 06:09:00,58.5,55.2,29.99,SSE,163,0.0,3.0,89,0.00,,,0.00,meteohub,2013-07-25 11:09:00,
2013-07-25 06:14:00,59.0,55.8,30.00,SSE,163,0.0,3.0,89,0.00,,,0.00,meteohub,2013-07-25 11:14:00,
2013-07-25 06:19:00,59.4,56.1,30.00,SSE,163,0.0,1.0,89,0.00,,,0.00,meteohub,2013-07-25 11:19:00,
2013-07-25 06:24:00,59.4,56.1,30.00,SSE,163,2.0,3.0,89,0.00,,,0.00,meteohub,2013-07-25 11:24:00,
2013-07-25 06:29:00,59.5,56.3,29.99,SSE,163,0.0,3.0,89,0.00,,,0.00,meteohub,2013-07-25 11:29:00,
2013-07-25 06:34:00,59.5,56.3,30.00,SSE,163,0.0,3.0,89,0.00,,,0.00,meteohub,2013-07-25 11:34:00,
2013-07-25 06:39:00,59.4,56.1,30.00,SSE,163,0.0,3.0,89,0.00,,,0.00,meteohub,2013-07-25 11:39:00,
2013-07-25 06:44:00,59.5,56.3,30.00,SSE,163,0.0,1.0,89,0.00,,,0.00,meteohub,2013-07-25 11:44:00,
2013-07-25 06:49:00,59.7,56.5,30.00,SSE,163,1.0,1.0,89,0.00,,,0.00,meteohub,2013-07-25 11:49:00,
2013-07-25 06:54:00,60.4,57.2,30.00,SSE,163,0.0,1.0,89,0.00,,,0.00,meteohub,2013-07-25 11:54:00,
2013-07-25 06:59:00,61.0,57.7,30.00,SSE,163,0.0,3.0,89,0.00,,,0.00,meteohub,2013-07-25 11:59:00,
2013-07-25 07:04:00,61.3,58.1,30.00,SSE,163,0.0,3.0,89,0.00,,,0.00,meteohub,2013-07-25 12:04:00,
2013-07-25 07:09:00,61.7,58.5,30.00,SSE,163,1.0,3.0,89,0.00,,,0.00,meteohub,2013-07-25 12:09:00,
2013-07-25 07:14:00,62.2,58.6,30.00,SSE,163,1.0,3.0,88,0.00,,,0.00,meteohub,2013-07-25 12:14:00,
2013-07-25 07:19:00,62.8,59.2,30.01,SSE,163,1.0,2.0,88,0.00,,,0.00,meteohub,2013-07-25 12:19:00,
2013-07-25 07:24:00,63.1,59.5,30.01,SSE,163,0.0,3.0,88,0.00,,,0.00,meteohub,2013-07-25 12:24:00,
2013-07-25 07:29:00,63.7,59.7,30.00,SSE,163,3.0,3.0,87,0.00,,,0.00,meteohub,2013-07-25 12:29:00,
2013-07-25 07:34:00,64.2,60.3,30.00,SSE,163,3.0,4.0,87,0.00,,,0.00,meteohub,2013-07-25 12:34:00,
2013-07-25 07:39:00,64.8,60.4,30.01,SSE,163,1.0,5.0,86,0.00,,,0.00,meteohub,2013-07-25 12:39:00,
2013-07-25 07:44:00,65.3,60.6,30.00,SSE,163,0.0,5.0,85,0.00,,,0.00,meteohub,2013-07-25 12:44:00,
2013-07-25 07:49:00,65.8,61.2,30.01,SSE,163,3.0,5.0,85,0.00,,,0.00,meteohub,2013-07-25 12:49:00,
2013-07-25 07:54:00,66.4,61.3,30.01,SSE,163,0.0,5.0,84,0.00,,,0.00,meteohub,2013-07-25 12:54:00,
2013-07-25 07:59:00,66.9,61.5,30.01,SSE,163,0.0,5.0,83,0.00,,,0.00,meteohub,2013-07-25 12:59:00,
2013-07-25 08:04:00,67.3,61.5,30.01,SSE,164,5.0,6.0,82,0.00,,,0.00,meteohub,2013-07-25 13:04:00,
2013-07-25 08:09:00,67.6,61.9,30.00,SSE,167,6.0,6.0,82,0.00,,,0.00,meteohub,2013-07-25 13:09:00,
2013-07-25 08:14:00,68.0,62.6,30.01,South,171,1.0,7.0,83,0.00,,,0.00,meteohub,2013-07-25 13:14:00,
2013-07-25 08:19:00,68.4,62.2,30.01,SSW,192,4.0,7.0,81,0.00,,,0.00,meteohub,2013-07-25 13:19:00,
2013-07-25 08:24:00,68.5,62.4,30.01,SSW,192,2.0,7.0,81,0.00,,,0.00,meteohub,2013-07-25 13:24:00,
2013-07-25 08:29:00,68.7,62.2,30.01,WSW,255,5.0,7.0,80,0.00,,,0.00,meteohub,2013-07-25 13:29:00,
2013-07-25 08:34:00,69.1,62.6,30.01,WSW,254,2.0,10.0,80,0.00,,,0.00,meteohub,2013-07-25 13:34:00,
2013-07-25 08:39:00,69.4,63.0,30.01,WSW,254,6.0,10.0,80,0.00,,,0.00,meteohub,2013-07-25 13:39:00,
2013-07-25 08:44:00,70.0,63.5,30.01,WSW,254,5.0,10.0,80,0.00,,,0.00,meteohub,2013-07-25 13:44:00,
2013-07-25 08:49:00,70.3,63.9,30.00,WSW,254,4.0,9.0,80,0.00,,,0.00,meteohub,2013-07-25 13:49:00,
2013-07-25 08:54:00,70.5,63.3,30.00,WSW,254,0.0,9.0,78,0.00,,,0.00,meteohub,2013-07-25 13:54:00,
2013-07-25 09:00:00,71.2,64.4,30.01,West,259,3.0,9.0,79,0.00,,,0.00,meteohub,2013-07-25 14:00:00,
2013-07-25 09:05:00,71.4,64.2,30.01,WSW,257,4.0,9.0,78,0.00,,,0.00,meteohub,2013-07-25 14:05:00,
2013-07-25 09:10:00,72.0,64.8,30.01,WSW,257,2.0,9.0,78,0.00,,,0.00,meteohub,2013-07-25 14:10:00,
2013-07-25 09:15:00,72.0,64.4,30.00,WSW,256,0.0,7.0,77,0.00,,,0.00,meteohub,2013-07-25 14:15:00,
2013-07-25 09:20:00,72.3,65.1,30.01,WSW,256,4.0,8.0,78,0.00,,,0.00,meteohub,2013-07-25 14:20:00,
2013-07-25 09:25:00,72.9,65.3,30.00,West,261,5.0,9.0,77,0.00,,,0.00,meteohub,2013-07-25 14:25:00,
2013-07-25 09:30:00,73.2,65.7,30.00,West,267,2.0,9.0,77,0.00,,,0.00,meteohub,2013-07-25 14:30:00,
2013-07-25 09:35:00,73.8,65.7,30.01,West,270,4.0,9.0,76,0.00,,,0.00,meteohub,2013-07-25 14:35:00,
2013-07-25 09:40:00,74.1,65.7,30.01,WSW,250,7.0,7.0,75,0.00,,,0.00,meteohub,2013-07-25 14:40:00,
2013-07-25 09:45:00,74.3,65.1,30.01,West,264,0.0,7.0,73,0.00,,,0.00,meteohub,2013-07-25 14:45:00,
2013-07-25 09:50:00,74.8,66.0,30.00,West,271,0.0,9.0,74,0.00,,,0.00,meteohub,2013-07-25 14:50:00,
2013-07-25 09:55:00,75.0,65.3,30.01,WNW,299,1.0,10.0,72,0.00,,,0.00,meteohub,2013-07-25 14:55:00,
2013-07-25 10:00:00,75.0,65.8,30.01,WNW,299,0.0,10.0,73,0.00,,,0.00,meteohub,2013-07-25 15:00:00,
2013-07-25 10:05:00,75.2,66.0,30.01,WNW,300,3.0,10.0,73,0.00,,,0.00,meteohub,2013-07-25 15:05:00,
2013-07-25 10:10:00,75.6,66.7,30.01,WNW,296,3.0,9.0,74,0.00,,,0.00,meteohub,2013-07-25 15:10:00,
2013-07-25 10:15:00,75.9,65.5,30.01,WNW,295,5.0,8.0,70,0.00,,,0.00,meteohub,2013-07-25 15:15:00,
2013-07-25 10:20:00,76.1,66.0,30.01,WNW,283,12.0,12.0,71,0.00,,,0.00,meteohub,2013-07-25 15:20:00,
2013-07-25 10:25:00,76.1,65.7,30.00,WSW,252,7.0,10.0,70,0.00,,,0.00,meteohub,2013-07-25 15:25:00,
2013-07-25 10:30:00,76.3,65.3,30.00,WNW,302,5.0,12.0,69,0.00,,,0.01,meteohub,2013-07-25 15:30:00,
2013-07-25 10:35:00,76.3,65.3,30.00,WNW,284,2.0,12.0,69,0.01,,,0.01,meteohub,2013-07-25 15:35:00,
2013-07-25 10:40:00,76.3,65.3,30.00,West,276,0.0,12.0,69,0.01,,,0.01,meteohub,2013-07-25 15:40:00,
2013-07-25 10:45:00,76.6,66.6,30.00,West,280,3.0,12.0,71,0.01,,,0.01,meteohub,2013-07-25 15:45:00,
2013-07-25 10:50:00,76.6,65.7,30.00,West,280,3.0,10.0,69,0.01,,,0.01,meteohub,2013-07-25 15:50:00,
2013-07-25 10:55:00,76.8,66.2,30.00,West,280,5.0,11.0,70,0.01,,,0.01,meteohub,2013-07-25 15:55:00,
2013-07-25 11:00:00,76.8,65.8,30.00,West,261,0.0,11.0,69,0.01,,,0.01,meteohub,2013-07-25 16:00:00,
2013-07-25 11:05:00,76.8,66.7,30.00,WNW,283,2.0,11.0,71,0.01,,,0.01,meteohub,2013-07-25 16:05:00,
2013-07-25 11:10:00,76.8,65.8,30.00,West,266,0.0,9.0,69,0.01,,,0.01,meteohub,2013-07-25 16:10:00,
2013-07-25 11:15:00,77.0,66.4,30.00,WSW,237,3.0,12.0,70,0.01,,,0.01,meteohub,2013-07-25 16:15:00,
2013-07-25 11:20:00,76.8,66.2,30.00,West,269,3.0,12.0,70,0.01,,,0.01,meteohub,2013-07-25 16:20:00,
2013-07-25 11:25:00,76.8,65.8,30.00,WNW,282,2.0,12.0,69,0.01,,,0.01,meteohub,2013-07-25 16:25:00,
2013-07-25 11:30:00,76.6,66.6,30.00,WSW,256,3.0,10.0,71,0.01,,,0.01,meteohub,2013-07-25 16:30:00,
2013-07-25 11:35:00,76.6,66.6,30.00,West,279,1.0,10.0,71,0.00,,,0.01,meteohub,2013-07-25 16:35:00,
2013-07-25 11:40:00,76.8,67.1,30.01,West,261,7.0,10.0,72,0.00,,,0.01,meteohub,2013-07-25 16:40:00,
2013-07-25 11:45:00,76.6,66.2,30.01,West,275,7.0,12.0,70,0.00,,,0.01,meteohub,2013-07-25 16:45:00,
2013-07-25 11:50:00,76.6,66.2,30.01,WNW,283,3.0,12.0,70,0.00,,,0.01,meteohub,2013-07-25 16:50:00,
2013-07-25 11:55:00,76.8,67.1,30.01,West,269,4.0,12.0,72,0.00,,,0.01,meteohub,2013-07-25 16:55:00,
2013-07-25 12:00:00,76.8,66.7,30.01,West,271,2.0,12.0,71,0.00,,,0.01,meteohub,2013-07-25 17:00:00,
2013-07-25 12:05:00,77.0,66.9,30.01,WNW,290,5.0,10.0,71,0.00,,,0.01,meteohub,2013-07-25 17:05:00,
2013-07-25 12:10:00,77.2,67.1,30.02,WNW,291,8.0,9.0,71,0.00,,,0.01,meteohub,2013-07-25 17:10:00,
2013-07-25 12:15:00,77.4,67.6,30.01,WNW,292,1.0,9.0,72,0.00,,,0.01,meteohub,2013-07-25 17:15:00,
2013-07-25 12:20:00,77.5,66.9,30.01,WNW,290,6.0,9.0,70,0.00,,,0.01,meteohub,2013-07-25 17:20:00,
2013-07-25 12:25:00,77.9,66.9,30.01,NW,306,4.0,8.0,69,0.00,,,0.01,meteohub,2013-07-25 17:25:00,
2013-07-25 12:30:00,78.1,67.1,30.01,WNW,294,12.0,12.0,69,0.00,,,0.01,meteohub,2013-07-25 17:30:00,
2013-07-25 12:35:00,78.1,67.1,30.01,WNW,283,1.0,14.0,69,0.00,,,0.01,meteohub,2013-07-25 17:35:00,
2013-07-25 12:40:00,78.1,67.5,30.01,NW,323,5.0,14.0,70,0.00,,,0.01,meteohub,2013-07-25 17:40:00,
2013-07-25 12:45:00,77.9,66.9,30.01,West,281,9.0,12.0,69,0.00,,,0.01,meteohub,2013-07-25 17:45:00,
2013-07-25 12:50:00,77.9,67.3,30.01,North,355,6.0,11.0,70,0.00,,,0.01,meteohub,2013-07-25 17:50:00,
2013-07-25 12:55:00,77.7,66.7,30.01,WNW,296,4.0,11.0,69,0.00,,,0.01,meteohub,2013-07-25 17:55:00,
2013-07-25 13:00:00,77.7,67.1,30.01,NNW,329,5.0,11.0,70,0.00,,,0.01,meteohub,2013-07-25 18:00:00,
2013-07-25 13:05:00,77.5,67.5,30.01,WNW,295,5.0,10.0,71,0.00,,,0.01,meteohub,2013-07-25 18:05:00,
2013-07-25 13:10:00,77.4,67.3,30.01,WNW,285,5.0,13.0,71,0.00,,,0.01,meteohub,2013-07-25 18:10:00,
2013-07-25 13:15:00,77.2,67.5,30.01,NNW,345,3.0,13.0,72,0.00,,,0.01,meteohub,2013-07-25 18:15:00,
2013-07-25 13:20:00,76.8,67.1,30.01,NW,325,6.0,13.0,72,0.00,,,0.01,meteohub,2013-07-25 18:20:00,
2013-07-25 13:25:00,76.6,66.9,30.00,WNW,283,0.0,11.0,72,0.00,,,0.01,meteohub,2013-07-25 18:25:00,
2013-07-25 13:30:00,76.5,67.1,30.00,NW,313,4.0,11.0,73,0.00,,,0.01,meteohub,2013-07-25 18:30:00,
2013-07-25 13:36:00,76.6,68.2,29.99,WNW,287,4.0,11.0,75,0.00,,,0.01,meteohub,2013-07-25 18:36:00,
2013-07-25 13:41:00,76.6,67.6,29.99,WNW,302,1.0,16.0,74,0.00,,,0.01,meteohub,2013-07-25 18:41:00,
2013-07-25 13:46:00,76.6,68.5,29.98,NNW,331,10.0,16.0,76,0.00,,,0.01,meteohub,2013-07-25 18:46:00,
2013-07-25 13:51:00,77.0,68.5,29.98,NNW,330,7.0,16.0,75,0.00,,,0.01,meteohub,2013-07-25 18:51:00,
2013-07-25 13:56:00,77.5,68.5,29.98,NW,319,2.0,14.0,74,0.00,,,0.01,meteohub,2013-07-25 18:56:00,
2013-07-25 14:01:00,77.5,67.8,29.99,West,275,6.0,11.0,72,0.00,,,0.01,meteohub,2013-07-25 19:01:00,
2013-07-25 14:06:00,78.1,68.4,29.99,NNW,338,3.0,12.0,72,0.00,,,0.01,meteohub,2013-07-25 19:06:00,
2013-07-25 14:12:00,78.3,66.4,29.99,NNE,15,5.0,13.0,67,0.00,,,0.01,meteohub,2013-07-25 19:12:00,
2013-07-25 14:17:00,78.3,66.4,29.99,NNW,344,7.0,14.0,67,0.00,,,0.01,meteohub,2013-07-25 19:17:00,
2013-07-25 14:22:00,78.6,66.4,29.99,North,355,11.0,14.0,66,0.00,,,0.01,meteohub,2013-07-25 19:22:00,
2013-07-25 14:27:00,78.6,63.5,29.99,North,11,9.0,15.0,60,0.00,,,0.01,meteohub,2013-07-25 19:27:00,
2013-07-25 14:32:00,78.6,65.5,29.99,North,10,4.0,15.0,64,0.00,,,0.01,meteohub,2013-07-25 19:32:00,
2013-07-25 14:37:00,79.0,64.8,29.99,ENE,69,6.0,15.0,62,0.00,,,0.01,meteohub,2013-07-25 19:37:00,
2013-07-25 14:42:00,79.0,65.8,29.99,NNE,28,6.0,13.0,64,0.00,,,0.01,meteohub,2013-07-25 19:42:00,
2013-07-25 14:47:00,78.8,64.8,29.99,NE,38,6.0,12.0,62,0.00,,,0.01,meteohub,2013-07-25 19:47:00,
2013-07-25 14:52:00,78.4,64.8,29.99,NNE,26,5.0,13.0,63,0.00,,,0.01,meteohub,2013-07-25 19:52:00,
2013-07-25 14:57:00,77.7,64.0,29.99,NNE,17,2.0,13.0,63,0.00,,,0.01,meteohub,2013-07-25 19:57:00,
2013-07-25 15:02:00,78.1,64.9,29.99,NNE,24,5.0,13.0,64,0.00,,,0.01,meteohub,2013-07-25 20:02:00,
2013-07-25 15:07:00,78.6,64.6,29.99,NNW,348,3.0,13.0,62,0.00,,,0.01,meteohub,2013-07-25 20:07:00,
2013-07-25 15:12:00,78.6,63.5,30.00,NNW,348,6.0,14.0,60,0.00,,,0.01,meteohub,2013-07-25 20:12:00,
2013-07-25 15:17:00,78.3,63.3,29.99,North,10,5.0,14.0,60,0.00,,,0.01,meteohub,2013-07-25 20:17:00,
2013-07-25 15:22:00,78.6,63.5,30.00,NNE,30,5.0,14.0,60,0.00,,,0.01,meteohub,2013-07-25 20:22:00,
2013-07-25 15:27:00,78.6,64.6,29.99,North,11,11.0,11.0,62,0.00,,,0.01,meteohub,2013-07-25 20:27:00,
2013-07-25 15:32:00,78.8,64.8,29.99,ENE,59,6.0,12.0,62,0.00,,,0.01,meteohub,2013-07-25 20:32:00,
2013-07-25 15:37:00,78.6,64.0,29.99,NE,51,4.0,12.0,61,0.00,,,0.01,meteohub,2013-07-25 20:37:00,
2013-07-25 15:42:00,79.0,65.3,29.98,East,80,7.0,12.0,63,0.00,,,0.01,meteohub,2013-07-25 20:42:00,
2013-07-25 15:47:00,78.6,64.6,29.98,NE,50,9.0,12.0,62,0.00,,,0.01,meteohub,2013-07-25 20:47:00,
2013-07-25 15:52:00,78.3,63.7,29.98,North,11,7.0,14.0,61,0.00,,,0.01,meteohub,2013-07-25 20:52:00,
2013-07-25 15:57:00,77.7,64.0,29.98,NNE,15,3.0,14.0,63,0.00,,,0.01,meteohub,2013-07-25 20:57:00,
2013-07-25 16:02:00,77.4,64.2,29.98,NNE,30,5.0,11.0,64,0.00,,,0.01,meteohub,2013-07-25 21:02:00,
2013-07-25 16:07:00,77.0,63.5,29.98,NNE,17,6.0,14.0,63,0.00,,,0.01,meteohub,2013-07-25 21:07:00,
2013-07-25 16:12:00,77.0,63.5,29.97,NNE,17,4.0,14.0,63,0.00,,,0.01,meteohub,2013-07-25 21:12:00,
2013-07-25 16:17:00,77.4,63.9,29.97,NNE,13,3.0,11.0,63,0.00,,,0.01,meteohub,2013-07-25 21:17:00,
2013-07-25 16:22:00,77.9,63.0,29.97,NE,52,1.0,10.0,60,0.00,,,0.01,meteohub,2013-07-25 21:22:00,
2013-07-25 16:27:00,78.6,62.1,29.96,NE,36,4.0,9.0,57,0.00,,,0.01,meteohub,2013-07-25 21:27:00,
2013-07-25 16:33:00,78.4,61.9,29.96,NNE,29,2.0,9.0,57,0.00,,,0.01,meteohub,2013-07-25 21:33:00,
2013-07-25 16:38:00,78.3,61.7,29.97,NNE,28,1.0,7.0,57,0.00,,,0.01,meteohub,2013-07-25 21:38:00,
2013-07-25 16:43:00,78.1,61.2,29.97,NNE,28,1.0,7.0,56,0.00,,,0.01,meteohub,2013-07-25 21:43:00,
2013-07-25 16:48:00,78.1,62.1,29.96,NNE,28,0.0,7.0,58,0.00,,,0.01,meteohub,2013-07-25 21:48:00,
2013-07-25 16:53:00,78.4,61.9,29.96,NNE,28,2.0,6.0,57,0.00,,,0.01,meteohub,2013-07-25 21:53:00,
2013-07-25 16:54:00,78.4,61.9,29.96,NNE,28,1.0,6.0,57,0.00,,,0.01,meteohub,2013-07-25 21:54:00,
2013-07-25 16:59:00,78.4,61.0,29.96,NNE,28,0.0,6.0,55,0.00,,,0.01,meteohub,2013-07-25 21:59:00,
2013-07-25 17:04:00,79.0,61.9,29.96,NNE,28,0.0,6.0,56,0.00,,,0.01,meteohub,2013-07-25 22:04:00,
2013-07-25 17:09:00,79.9,61.2,29.96,NNE,28,4.0,6.0,53,0.00,,,0.01,meteohub,2013-07-25 22:09:00,
2013-07-25 17:14:00,79.5,61.3,29.96,NNE,28,3.0,6.0,54,0.00,,,0.01,meteohub,2013-07-25 22:14:00,
2013-07-25 17:19:00,79.3,60.8,29.96,NNE,28,0.0,4.0,53,0.00,,,0.01,meteohub,2013-07-25 22:19:00,
2013-07-25 17:24:00,79.9,61.7,29.96,NNE,28,0.0,4.0,54,0.00,,,0.01,meteohub,2013-07-25 22:24:00,
2013-07-25 17:29:00,79.9,60.6,29.96,NNE,28,0.0,4.0,52,0.00,,,0.01,meteohub,2013-07-25 22:29:00,
2013-07-25 17:34:00,80.2,62.1,29.96,NNE,28,2.0,4.0,54,0.00,,,0.01,meteohub,2013-07-25 22:34:00,
2013-07-25 17:39:00,80.1,60.8,29.96,NNE,28,0.0,4.0,52,0.00,,,0.01,meteohub,2013-07-25 22:39:00,
2013-07-25 17:44:00,79.9,61.7,29.96,NNE,28,0.0,5.0,54,0.00,,,0.01,meteohub,2013-07-25 22:44:00,
2013-07-25 17:49:00,79.5,61.3,29.96,NNW,342,3.0,5.0,54,0.00,,,0.01,meteohub,2013-07-25 22:49:00,
2013-07-25 17:54:00,79.3,60.8,29.96,NNW,342,0.0,6.0,53,0.00,,,0.01,meteohub,2013-07-25 22:54:00,
2013-07-25 17:59:00,79.2,62.1,29.96,NNW,342,0.0,6.0,56,0.00,,,0.01,meteohub,2013-07-25 22:59:00,
2013-07-25 18:04:00,78.6,61.5,29.96,NNW,342,0.0,6.0,56,0.00,,,0.01,meteohub,2013-07-25 23:04:00,
2013-07-25 18:09:00,78.3,62.2,29.95,NNW,342,0.0,3.0,58,0.00,,,0.01,meteohub,2013-07-25 23:09:00,
2013-07-25 18:14:00,77.9,63.3,29.95,NNW,342,1.0,3.0,61,0.00,,,0.01,meteohub,2013-07-25 23:14:00,
2013-07-25 18:19:00,77.7,61.7,29.95,NNW,342,0.0,1.0,58,0.00,,,0.01,meteohub,2013-07-25 23:19:00,
2013-07-25 18:24:00,78.3,62.8,29.95,NNW,342,0.0,3.0,59,0.00,,,0.01,meteohub,2013-07-25 23:24:00,
2013-07-25 18:29:00,78.8,63.3,29.94,NNW,342,0.0,3.0,59,0.00,,,0.01,meteohub,2013-07-25 23:29:00,
2013-07-25 18:34:00,79.2,62.6,29.94,NNW,341,3.0,4.0,57,0.00,,,0.01,meteohub,2013-07-25 23:34:00,
2013-07-25 18:39:00,78.6,63.1,29.95,NNW,342,1.0,5.0,59,0.00,,,0.01,meteohub,2013-07-25 23:39:00,
2013-07-25 18:44:00,78.1,62.6,29.95,NNW,342,0.0,5.0,59,0.00,,,0.01,meteohub,2013-07-25 23:44:00,
2013-07-25 18:49:00,77.7,63.7,29.95,NNW,341,0.0,5.0,62,0.00,,,0.01,meteohub,2013-07-25 23:49:00,
2013-07-25 18:54:00,77.7,64.0,29.95,NNW,342,0.0,4.0,63,0.00,,,0.01,meteohub,2013-07-25 23:54:00,
2013-07-25 18:59:00,77.7,64.0,29.95,NNW,342,0.0,4.0,63,0.00,,,0.01,meteohub,2013-07-25 23:59:00,
2013-07-25 19:04:00,78.3,64.2,29.95,NNW,342,0.0,1.0,62,0.00,,,0.01,meteohub,2013-07-26 00:04:00,
2013-07-25 19:09:00,78.8,64.2,29.95,NNW,342,0.0,4.0,61,0.00,,,0.01,meteohub,2013-07-26 00:09:00,
2013-07-25 19:14:00,78.4,63.9,29.95,NNW,341,0.0,4.0,61,0.00,,,0.01,meteohub,2013-07-26 00:14:00,
2013-07-25 19:19:00,78.3,63.7,29.95,NNW,341,0.0,4.0,61,0.00,,,0.01,meteohub,2013-07-26 00:19:00,
2013-07-25 19:24:00,78.4,63.0,29.95,NNW,342,3.0,5.0,59,0.00,,,0.01,meteohub,2013-07-26 00:24:00,
2013-07-25 19:29:00,78.4,62.4,29.94,NNW,342,0.0,6.0,58,0.00,,,0.01,meteohub,2013-07-26 00:29:00,
2013-07-25 19:34:00,78.4,62.4,29.95,NNW,342,2.0,6.0,58,0.00,,,0.01,meteohub,2013-07-26 00:34:00,
2013-07-25 19:39:00,78.3,62.2,29.95,NNW,342,2.0,6.0,58,0.00,,,0.01,meteohub,2013-07-26 00:39:00,
2013-07-25 19:44:00,78.1,62.1,29.96,NNW,342,0.0,6.0,58,0.00,,,0.01,meteohub,2013-07-26 00:44:00,
2013-07-25 19:49:00,77.5,62.1,29.95,NNW,342,0.0,6.0,59,0.00,,,0.01,meteohub,2013-07-26 00:49:00,
2013-07-25 19:54:00,77.2,61.7,29.96,NNW,342,0.0,4.0,59,0.00,,,0.01,meteohub,2013-07-26 00:54:00,
2013-07-25 19:59:00,77.2,61.7,29.96,NNW,342,0.0,5.0,59,0.00,,,0.01,meteohub,2013-07-26 00:59:00,
2013-07-25 20:04:00,77.0,61.5,29.96,NNW,342,0.0,5.0,59,0.00,,,0.01,meteohub,2013-07-26 01:04:00,
2013-07-25 20:09:00,76.6,61.7,29.96,NNW,342,0.0,5.0,60,0.00,,,0.01,meteohub,2013-07-26 01:09:00,
2013-07-25 20:14:00,76.5,61.5,29.96,NNW,342,0.0,3.0,60,0.00,,,0.01,meteohub,2013-07-26 01:14:00,
2013-07-25 20:19:00,75.9,61.5,29.96,NNW,342,0.0,1.0,61,0.00,,,0.01,meteohub,2013-07-26 01:19:00,
2013-07-25 20:24:00,75.7,61.9,29.96,NNW,342,0.0,0.0,62,0.00,,,0.01,meteohub,2013-07-26 01:24:00,
2013-07-25 20:29:00,75.4,61.5,29.96,NNW,342,0.0,0.0,62,0.00,,,0.01,meteohub,2013-07-26 01:29:00,
2013-07-25 20:34:00,75.0,61.5,29.96,NNW,342,0.0,3.0,63,0.00,,,0.01,meteohub,2013-07-26 01:34:00,
2013-07-25 20:39:00,74.5,61.5,29.96,NNW,342,0.0,3.0,64,0.00,,,0.01,meteohub,2013-07-26 01:39:00,
2013-07-25 20:44:00,74.3,61.7,29.96,NNW,342,0.0,3.0,65,0.00,,,0.01,meteohub,2013-07-26 01:44:00,
2013-07-25 20:49:00,74.1,62.4,29.96,NNW,342,0.0,2.0,67,0.00,,,0.01,meteohub,2013-07-26 01:49:00,
2013-07-25 20:54:00,73.9,62.2,29.96,NNW,342,0.0,4.0,67,0.00,,,0.01,meteohub,2013-07-26 01:54:00,
2013-07-25 21:00:00,73.8,62.6,29.96,NNW,342,2.0,4.0,68,0.00,,,0.01,meteohub,2013-07-26 02:00:00,
2013-07-25 21:05:00,73.6,62.4,29.96,NNW,342,0.0,4.0,68,0.00,,,0.01,meteohub,2013-07-26 02:05:00,
2013-07-25 21:10:00,73.2,62.1,29.96,NNW,342,0.0,3.0,68,0.00,,,0.01,meteohub,2013-07-26 02:10:00,
2013-07-25 21:15:00,73.0,62.2,29.96,NNW,342,0.0,3.0,69,0.00,,,0.01,meteohub,2013-07-26 02:15:00,
2013-07-25 21:20:00,72.9,62.1,29.96,NNW,342,0.0,3.0,69,0.00,,,0.01,meteohub,2013-07-26 02:20:00,
2013-07-25 21:25:00,72.9,62.1,29.96,NNW,342,0.0,3.0,69,0.00,,,0.01,meteohub,2013-07-26 02:25:00,
2013-07-25 21:30:00,72.7,61.9,29.97,NNW,342,0.0,3.0,69,0.00,,,0.01,meteohub,2013-07-26 02:30:00,
2013-07-25 21:35:00,72.7,61.9,29.97,NNW,342,0.0,3.0,69,0.00,,,0.01,meteohub,2013-07-26 02:35:00,
2013-07-25 21:40:00,72.5,62.2,29.97,NNW,342,0.0,2.0,70,0.00,,,0.01,meteohub,2013-07-26 02:40:00,
2013-07-25 21:45:00,72.3,62.1,29.97,NNW,342,0.0,0.0,70,0.00,,,0.01,meteohub,2013-07-26 02:45:00,
2013-07-25 21:50:00,72.1,62.2,29.97,NNW,342,0.0,1.0,71,0.00,,,0.01,meteohub,2013-07-26 02:50:00,
2013-07-25 21:55:00,72.0,62.1,29.98,NNW,342,0.0,1.0,71,0.00,,,0.01,meteohub,2013-07-26 02:55:00,
2013-07-25 22:00:00,71.8,61.9,29.98,NNW,342,0.0,0.0,71,0.00,,,0.01,meteohub,2013-07-26 03:00:00,
2013-07-25 22:05:00,71.6,62.1,29.98,NNW,342,0.0,0.0,72,0.00,,,0.01,meteohub,2013-07-26 03:05:00,
2013-07-25 22:10:00,71.4,61.9,29.98,NNW,342,0.0,0.0,72,0.00,,,0.01,meteohub,2013-07-26 03:10:00,
2013-07-25 22:15:00,71.2,61.7,29.98,NNW,342,0.0,0.0,72,0.00,,,0.01,meteohub,2013-07-26 03:15:00,
2013-07-25 22:20:00,71.2,61.7,29.98,NNW,342,0.0,0.0,72,0.00,,,0.01,meteohub,2013-07-26 03:20:00,
2013-07-25 22:25:00,71.1,62.4,29.98,NNW,342,4.0,0.0,74,0.00,,,0.01,meteohub,2013-07-26 03:25:00,
2013-07-25 22:30:00,70.7,62.4,29.98,West,281,4.0,4.0,75,0.00,,,0.01,meteohub,2013-07-26 03:30:00,
2013-07-25 22:35:00,70.7,62.4,29.98,West,280,1.0,5.0,75,0.00,,,0.01,meteohub,2013-07-26 03:35:00,
2013-07-25 22:40:00,70.5,62.2,29.98,West,280,2.0,5.0,75,0.00,,,0.01,meteohub,2013-07-26 03:40:00,
2013-07-25 22:45:00,70.3,62.4,29.98,West,281,2.0,5.0,76,0.00,,,0.01,meteohub,2013-07-26 03:45:00,
2013-07-25 22:50:00,70.3,63.5,29.98,West,271,1.0,4.0,79,0.00,,,0.01,meteohub,2013-07-26 03:50:00,
2013-07-25 22:55:00,70.2,63.7,29.98,West,270,3.0,5.0,80,0.00,,,0.01,meteohub,2013-07-26 03:55:00,
2013-07-25 23:00:00,70.0,64.2,29.98,West,265,2.0,6.0,82,0.00,,,0.01,meteohub,2013-07-26 04:00:00,
2013-07-25 23:01:00,70.0,64.2,29.98,West,265,2.0,7.0,82,0.00,,,0.01,meteohub,2013-07-26 04:01:00,
2013-07-25 23:02:00,70.0,64.2,29.98,West,264,6.0,7.0,82,0.00,,,0.01,meteohub,2013-07-26 04:02:00,
2013-07-25 23:07:00,69.8,64.8,29.98,WSW,257,2.0,7.0,84,0.00,,,0.01,meteohub,2013-07-26 04:07:00,
2013-07-25 23:12:00,69.6,64.6,29.98,WSW,254,4.0,7.0,84,0.00,,,0.01,meteohub,2013-07-26 04:12:00,
2013-07-25 23:17:00,69.8,65.1,29.98,WSW,244,4.0,7.0,85,0.00,,,0.01,meteohub,2013-07-26 04:17:00,
2013-07-25 23:22:00,69.8,65.1,29.97,WSW,246,4.0,7.0,85,0.00,,,0.01,meteohub,2013-07-26 04:22:00,
2013-07-25 23:27:00,69.8,65.1,29.98,WSW,244,3.0,7.0,85,0.00,,,0.01,meteohub,2013-07-26 04:27:00,
2013-07-25 23:32:00,69.8,65.1,29.97,WSW,244,0.0,7.0,85,0.00,,,0.01,meteohub,2013-07-26 04:32:00,
2013-07-25 23:37:00,69.6,64.9,29.97,WSW,238,3.0,7.0,85,0.00,,,0.01,meteohub,2013-07-26 04:37:00,
2013-07-25 23:42:00,69.6,64.9,29.97,WSW,238,4.0,7.0,85,0.00,,,0.01,meteohub,2013-07-26 04:42:00,
2013-07-25 23:47:00,69.6,64.9,29.97,WSW,238,3.0,8.0,85,0.00,,,0.01,meteohub,2013-07-26 04:47:00,
2013-07-25 23:52:00,69.4,65.1,29.97,WSW,242,5.0,9.0,86,0.00,,,0.01,meteohub,2013-07-26 04:52:00,
2013-07-25 23:57:00,69.4,65.1,29.96,WSW,253,4.0,9.0,86,0.00,,,0.01,meteohub,2013-07-26 04:57:00,